• In Hungary
  • List of Countries
  • For 7 days
  • Water Temperature
  • Satellite Maps
  • Weather Map
  • News
  • Weather Widgets
  • user-avatar
    Login

    Hourly Weather Zasechnyy

    Today, 22 September, Saturday

    Time Temperature Precipitation Wind Pressure Humidity
    00:00 +16°C° 0 mm 2 mps 745 mmHg 81%
    01:00 +16°C° 0 mm 2 mps 745 mmHg 82%
    02:00 +16°C° 0 mm 2 mps 745 mmHg 82%
    03:00 +15°C° 0 mm 2 mps 745 mmHg 81%
    04:00 +15°C° 0 mm 2 mps 745 mmHg 82%
    05:00 +15°C° 0 mm 2 mps 745 mmHg 82%
    06:00 +15°C° 0 mm 2 mps 745 mmHg 82%
    07:00 +16°C° 0 mm 3 mps 745 mmHg 77%
    08:00 +18°C° 0 mm 3 mps 745 mmHg 73%
    09:00 +19°C° 0 mm 3 mps 744 mmHg 67%
    10:00 +21°C° 0 mm 4 mps 744 mmHg 62%
    11:00 +22°C° 0 mm 4 mps 744 mmHg 58%
    12:00 +25°C° 0 mm 5 mps 744 mmHg 54%
    13:00 +25°C° 0 mm 5 mps 744 mmHg 53%
    14:00 +25°C° 0 mm 5 mps 743 mmHg 51%
    15:00 +26°C° 0 mm 6 mps 743 mmHg 50%
    16:00 +25°C° 0 mm 5 mps 742 mmHg 55%
    17:00 +22°C° 0 mm 5 mps 742 mmHg 60%
    18:00 +21°C° 0 mm 4 mps 741 mmHg 65%
    19:00 +21°C° 0 mm 4 mps 741 mmHg 65%
    20:00 +20°C° 0 mm 5 mps 741 mmHg 64%
    21:00 +20°C° 0 mm 5 mps 740 mmHg 63%
    22:00 +19°C° 0 mm 5 mps 740 mmHg 62%
    23:00 +19°C° 0 mm 6 mps 739 mmHg 60%

    Tomorrow, 23 September, Sunday

    Time Temperature Precipitation Wind Pressure Humidity
    00:00 +19°C° 0 mm 6 mps 739 mmHg 59%
    01:00 +19°C° 0 mm 6 mps 739 mmHg 58%
    02:00 +19°C° 0 mm 6 mps 738 mmHg 58%
    03:00 +17°C° 0 mm 6 mps 738 mmHg 57%
    04:00 +17°C° 0.1 mm 6 mps 737 mmHg 60%
    05:00 +16°C° 0.1 mm 5 mps 737 mmHg 63%
    06:00 +15°C° 0.1 mm 5 mps 736 mmHg 66%
    07:00 +15°C° 0.3 mm 5 mps 736 mmHg 70%
    08:00 +15°C° 0.3 mm 5 mps 736 mmHg 74%
    09:00 +14°C° 0.3 mm 6 mps 736 mmHg 78%
    10:00 +13°C° 0.8 mm 6 mps 737 mmHg 80%
    11:00 +10°C° 0.8 mm 6 mps 737 mmHg 83%
    12:00 +9°C° 0.8 mm 5 mps 737 mmHg 85%
    13:00 +9°C° 0.3 mm 5 mps 738 mmHg 84%
    14:00 +9°C° 0.3 mm 5 mps 738 mmHg 83%
    15:00 +11°C° 0.3 mm 4 mps 739 mmHg 82%
    16:00 +11°C° 0 mm 4 mps 739 mmHg 82%
    17:00 +11°C° 0 mm 3 mps 739 mmHg 82%
    18:00 +11°C° 0 mm 3 mps 739 mmHg 82%
    19:00 +10°C° 0.1 mm 3 mps 739 mmHg 85%
    20:00 +10°C° 0.1 mm 3 mps 739 mmHg 87%
    21:00 +9°C° 0.1 mm 3 mps 739 mmHg 89%
    22:00 +9°C° 0 mm 3 mps 739 mmHg 90%
    23:00 +8°C° 0 mm 3 mps 739 mmHg 90%

    Day after tomorrow, 24 September, Monday

    Time Temperature Precipitation Wind Pressure Humidity
    00:00 +8°C° 0 mm 3 mps 739 mmHg 91%
    01:00 +8°C° 0 mm 3 mps 739 mmHg 92%
    02:00 +8°C° 0 mm 3 mps 739 mmHg 92%
    03:00 +7°C° 0 mm 3 mps 739 mmHg 93%
    04:00 +7°C° 0 mm 3 mps 739 mmHg 94%
    05:00 +7°C° 0 mm 3 mps 739 mmHg 94%
    06:00 +5°C° 0 mm 3 mps 738 mmHg 94%
    07:00 +7°C° 0 mm 3 mps 738 mmHg 89%
    08:00 +9°C° 0 mm 3 mps 739 mmHg 85%
    09:00 +10°C° 0 mm 4 mps 739 mmHg 80%
    10:00 +11°C° 0 mm 4 mps 738 mmHg 75%
    11:00 +12°C° 0 mm 5 mps 738 mmHg 70%
    12:00 +13°C° 0 mm 5 mps 738 mmHg 65%
    13:00 +13°C° 0.2 mm 5 mps 737 mmHg 67%
    14:00 +13°C° 0.2 mm 6 mps 737 mmHg 70%
    15:00 +11°C° 0.2 mm 6 mps 736 mmHg 72%
    16:00 +10°C° 1.7 mm 6 mps 735 mmHg 77%
    17:00 +9°C° 1.7 mm 7 mps 734 mmHg 82%
    18:00 +8°C° 1.7 mm 7 mps 733 mmHg 87%
    19:00 +7°C° 1.8 mm 8 mps 731 mmHg 88%
    20:00 +8°C° 1.8 mm 9 mps 730 mmHg 88%
    21:00 +8°C° 1.8 mm 10 mps 728 mmHg 89%
    22:00 +9°C° 1.1 mm 10 mps 727 mmHg 87%
    23:00 +9°C° 1.1 mm 10 mps 725 mmHg 85%

    25 September, Tuesday

    Time Temperature Precipitation Wind Pressure Humidity
    00:00 +9°C° 1.1 mm 10 mps 724 mmHg 84%
    01:00 +9°C° 0.1 mm 10 mps 723 mmHg 83%
    02:00 +8°C° 0.1 mm 11 mps 723 mmHg 82%
    03:00 +7°C° 0.1 mm 11 mps 723 mmHg 81%
    04:00 +7°C° 0.2 mm 11 mps 723 mmHg 82%
    05:00 +7°C° 0.2 mm 11 mps 723 mmHg 82%
    06:00 +6°C° 0.2 mm 10 mps 724 mmHg 83%
    07:00 +6°C° 0.2 mm 10 mps 725 mmHg 83%
    08:00 +6°C° 0.2 mm 10 mps 725 mmHg 82%
    09:00 +6°C° 0.2 mm 10 mps 726 mmHg 82%
    10:00 +6°C° 0.2 mm 10 mps 727 mmHg 81%
    11:00 +6°C° 0.2 mm 10 mps 728 mmHg 80%
    12:00 +6°C° 0.2 mm 10 mps 729 mmHg 79%
    13:00 +6°C° 0.3 mm 10 mps 730 mmHg 79%
    14:00 +6°C° 0.3 mm 10 mps 731 mmHg 80%
    15:00 +5°C° 0.3 mm 10 mps 732 mmHg 80%
    16:00 +5°C° 0.4 mm 9 mps 733 mmHg 81%
    17:00 +5°C° 0.4 mm 9 mps 734 mmHg 81%
    18:00 +5°C° 0.4 mm 9 mps 735 mmHg 82%
    19:00 +5°C° 0.3 mm 8 mps 736 mmHg 82%
    20:00 +4°C° 0.3 mm 8 mps 737 mmHg 82%
    21:00 +4°C° 0.3 mm 8 mps 738 mmHg 82%
    22:00 +4°C° 0.1 mm 7 mps 739 mmHg 82%
    23:00 +4°C° 0.1 mm 7 mps 739 mmHg 82%

    26 September, Wednesday

    Time Temperature Precipitation Wind Pressure Humidity
    00:00 +4°C° 0.1 mm 6 mps 740 mmHg 83%
    01:00 +3°C° 0 mm 6 mps 741 mmHg 83%
    02:00 +3°C° 0 mm 5 mps 741 mmHg 83%
    03:00 +2°C° 0 mm 5 mps 742 mmHg 83%
    04:00 +2°C° 0 mm 5 mps 743 mmHg 83%
    05:00 +1°C° 0 mm 5 mps 743 mmHg 84%
    06:00 +1°C° 0 mm 5 mps 744 mmHg 85%
    07:00 +1°C° 0 mm 5 mps 744 mmHg 81%
    08:00 +2°C° 0 mm 5 mps 745 mmHg 77%
    09:00 +2°C° 0 mm 5 mps 745 mmHg 74%
    10:00 +5°C° 0 mm 5 mps 745 mmHg 70%
    11:00 +5°C° 0 mm 6 mps 746 mmHg 67%
    12:00 +8°C° 0 mm 6 mps 746 mmHg 63%
    13:00 +9°C° 0 mm 6 mps 745 mmHg 61%
    14:00 +9°C° 0 mm 6 mps 745 mmHg 59%
    15:00 +10°C° 0 mm 7 mps 744 mmHg 57%
    16:00 +9°C° 0 mm 6 mps 744 mmHg 61%
    17:00 +9°C° 0 mm 6 mps 744 mmHg 65%
    18:00 +8°C° 0 mm 5 mps 744 mmHg 69%
    19:00 +8°C° 0 mm 6 mps 744 mmHg 72%
    20:00 +8°C° 0 mm 6 mps 743 mmHg 75%
    21:00 +8°C° 0 mm 6 mps 743 mmHg 78%
    22:00 +8°C° 0.1 mm 7 mps 743 mmHg 79%
    23:00 +8°C° 0.1 mm 7 mps 742 mmHg 81%

    27 September, Thursday

    Time Temperature Precipitation Wind Pressure Humidity
    00:00 +8°C° 0.1 mm 7 mps 742 mmHg 83%
    01:00 +6°C° 0.3 mm 8 mps 741 mmHg 83%
    02:00 +6°C° 0.3 mm 8 mps 740 mmHg 83%
    03:00 +5°C° 0.3 mm 9 mps 740 mmHg 83%
    04:00 +5°C° 0.1 mm 9 mps 739 mmHg 82%
    05:00 +5°C° 0.1 mm 10 mps 739 mmHg 80%
    06:00 +5°C° 0.1 mm 10 mps 738 mmHg 79%
    07:00 +5°C° 0 mm 10 mps 738 mmHg 78%
    08:00 +5°C° 0 mm 10 mps 737 mmHg 77%
    09:00 +5°C° 0 mm 10 mps 737 mmHg 76%
    10:00 +6°C° 0.1 mm 10 mps 736 mmHg 76%
    11:00 +7°C° 0.1 mm 10 mps 736 mmHg 76%
    12:00 +7°C° 0.1 mm 10 mps 736 mmHg 76%
    13:00 +7°C° 0.4 mm 10 mps 735 mmHg 78%
    14:00 +7°C° 0.4 mm 10 mps 735 mmHg 80%
    15:00 +7°C° 0.4 mm 10 mps 734 mmHg 82%
    16:00 +7°C° 0.6 mm 9 mps 734 mmHg 84%
    17:00 +7°C° 0.6 mm 9 mps 734 mmHg 85%
    18:00 +7°C° 0.6 mm 9 mps 733 mmHg 87%
    19:00 +7°C° 0.2 mm 9 mps 733 mmHg 87%
    20:00 +8°C° 0.2 mm 9 mps 733 mmHg 87%
    21:00 +9°C° 0.2 mm 8 mps 733 mmHg 86%
    22:00 +9°C° 0.2 mm 7 mps 733 mmHg 86%
    23:00 +9°C° 0.2 mm 7 mps 733 mmHg 86%
    Show more